Temp
-7 -7 -7 -7 -6 -6 -6 -6 -6 -6 -6 -6 -6 -6 -6 -6 -5 -5 -5 -5 -5 -5 -5 -5 -5 -6 -6 -6 -6 -6 -7 -7 -7 -7 -7 -7 -7 -7 -8 -8 -8 -8 -8
-7 -7 -7 -7 -7 -7 -7 -7 -6 -6 -6 -6 -6 -6 -6 -6 -5 -5 -5 -5 -5 -5 -5 -5 -5 -5 -5 -6 -6 -7 -7 -7 -7 -7 -7 -7 -8 -8 -8 -8 -8 -8 -8
-8 -8 -7 -7 -7 -7 -7 -7 -7 -7 -6 -6 -6 -6 -6 -6 -6 -6 -5 -5 -5 -5 -5 -5 -5 -6 -6 -6 -7 -7 -7 -7 -8 -8 -8 -8 -8 -8 -8 -8 -8 -8 -9
-8 -8 -8 -8 -8 -8 -7 -7 -7 -7 -7 -7 -6 -7 -7 -6 -6 -6 -6 -6 -6 -5 -5 -6 -6 -6 -6 -6 -7 -7 -8 -8 -8 -8 -8 -8 -8 -8 -8 -8 -9 -9 -9
-8 -9 -8 -8 -8 -8 -8 -7 -7 -7 -7 -7 -7 -7 -7 -7 -7 -7 -6 -6 -6 -6 -6 -6 -6 -7 -7 -7 -8 -8 -8 -8 -8 -8 -8 -9 -9 -9 -9 -9 -9 -9 -9
-9 -8 -9 -8 -8 -8 -8 -8 -8 -8 -7 -7 -7 -7 -7 -7 -7 -7 -7 -7 -7 -7 -6 -7 -7 -7 -7 -8 -8 -8 -8 -9 -9 -9 -9 -9 -9 -9 -9 -9 -10 -10 -10
-9 -9 -9 -9 -8 -8 -8 -8 -8 -8 -8 -8 -8 -7 -7 -7 -7 -7 -7 -7 -7 -7 -7 -7 -7 -7 -8 -8 -8 -9 -9 -9 -9 -10 -10 -10 -10 -10 -10 -10 -10 -10 -10
-10 -10 -10 -9 -9 -9 -8 -8 -8 -9 -9 -9 -9 -8 -8 -8 -8 -8 -8 -8 -8 -8 -8 -8 -8 -9 -9 -9 -9 -9 -9 -10 -10 -10 -10 -10 -10 -10 -10 -10 -10 -10 -10
-10 -10 -10 -10 -10 -9 -9 -9 -9 -9 -9 -9 -9 -9 -9 -8 -8 -8 -8 -8 -8 -8 -9 -9 -9 -9 -9 -10 -10 -10 -10 -10 -10 -10 -11 -11 -11 -11 -11 -11 -11 -11 -11
-10 -10 -10 -10 -10 -10 -10 -10 -10 -10 -9 -9 -9 -9 -9 -9 -9 -9 -9 -9 -9 -9 -9 -10 -10 -10 -10 -10 -11 -11 -11 -11 -11 -11 -11 -11 -11 -11 -11 -11 -11 -11 -11
-10 -11 -11 -10 -10 -10 -10 -10 -10 -10 -10 -10 -10 -10 -10 -10 -10 -10 -10 -10 -10 -10 -10 -10 -11 -11 -11 -11 -11 -11 -11 -11 -11 -11 -11 -11 -11 -12 -12 -11 -11 -11 -11
-10 -10 -10 -10 -11 -11 -11 -11 -11 -11 -11 -10 -10 -10 -10 -10 -10 -10 -10 -11 -11 -11 -11 -11 -11 -11 -12 -11 -12 -12 -12 -12 -12 -12 -12 -12 -12 -12 -12 -12 -11 -11 -11
-10 -10 -11 -11 -11 -11 -11 -11 -11 -11 -11 -11 -11 -11 -11 -11 -10 -10 -11 -11 -11 -11 -11 -11 -11 -11 -12 -12 -12 -12 -12 -12 -12 -12 -12 -12 -12 -12 -12 -12 -12 -11 -11
-11 -11 -11 -11 -11 -11 -11 -11 -11 -12 -12 -12 -12 -12 -11 -11 -11 -11 -11 -11 -11 -12 -12 -11 -11 -11 -11 -12 -12 -12 -12 -12 -12 -12 -12 -12 -12 -12 -12 -12 -12 -11 -11
-11 -11 -11 -11 -12 -12 -12 -11 -11 -11 -11 -12 -12 -12 -12 -12 -12 -12 -11 -12 -12 -12 -12 -12 -12 -11 -12 -12 -12 -12 -13 -13 -13 -13 -13 -13 -12 -12 -12 -12 -12 -12 -12
-11 -11 -11 -11 -11 -12 -12 -12 -12 -12 -12 -12 -12 -12 -12 -12 -12 -12 -12 -12 -12 -12 -12 -12 -12 -12 -12 -12 -12 -12 -12 -13 -13 -13 -13 -13 -13 -13 -13 -12 -12 -12 -12
-10 -10 -11 -11 -11 -11 -11 -11 -12 -12 -12 -12 -12 -12 -12 -13 -13 -13 -12 -12 -13 -12 -12 -12 -12 -12 -13 -13 -13 -13 -13 -13 -13 -13 -13 -13 -13 -13 -13 -13 -12 -12 -12
-10 -10 -11 -11 -11 -12 -11 -11 -11 -11 -12 -12 -12 -12 -12 -13 -13 -13 -13 -13 -13 -13 -13 -13 -13 -13 -12 -13 -13 -13 -13 -13 -14 -14 -14 -14 -13 -13 -13 -13 -13 -12 -12
-11 -10 -10 -10 -11 -11 -12 -12 -11 -11 -12 -11 -12 -12 -13 -13 -13 -13 -13 -13 -13 -13 -13 -13 -13 -13 -13 -13 -13 -13 -13 -14 -14 -14 -14 -14 -14 -14 -13 -13 -13 -13 -13
-11 -11 -10 -9 -10 -11 -11 -11 -11 -11 -11 -12 -12 -12 -13 -13 -13 -13 -14 -14 -13 -13 -13 -13 -13 -13 -13 -13 -13 -13 -14 -14 -14 -14 -14 -14 -14 -14 -14 -14 -14 -13 -13
-10 -11 -11 -10 -9 -10 -11 -11 -11 -11 -11 -11 -11 -12 -12 -13 -13 -13 -13 -14 -14 -14 -14 -14 -14 -14 -14 -14 -14 -14 -14 -14 -14 -14 -14 -14 -14 -14 -14 -14 -14 -13 -13
-11 -11 -10 -10 -10 -10 -10 -11 -11 -11 -11 -11 -11 -12 -12 -12 -13 -13 -13 -14 -14 -14 -14 -14 -14 -14 -14 -14 -14 -14 -14 -14 -14 -14 -14 -14 -14 -14 -14 -14 -14 -14 -14
-11 -11 -11 -11 -11 -11 -10 -10 -11 -12 -11 -11 -12 -12 -13 -13 -13 -13 -14 -14 -14 -14 -14 -14 -15 -14 -14 -14 -14 -14 -14 -15 -15 -14 -14 -15 -14 -14 -14 -14 -14 -14 -14
-12 -12 -12 -12 -11 -11 -11 -11 -11 -11 -11 -11 -12 -12 -12 -13 -13 -13 -14 -14 -14 -14 -14 -15 -15 -15 -15 -15 -14 -15 -15 -15 -15 -15 -15 -15 -14 -14 -14 -14 -14 -14 -14
-12 -12 -12 -12 -12 -12 -11 -11 -11 -11 -11 -12 -12 -12 -12 -13 -13 -14 -14 -14 -14 -14 -14 -15 -15 -15 -15 -15 -15 -15 -15 -15 -15 -15 -15 -15 -15 -14 -14 -14 -14 -14 -14
-12 -12 -12 -12 -12 -12 -12 -12 -11 -11 -11 -12 -12 -12 -13 -13 -14 -14 -14 -14 -14 -14 -14 -15 -15 -15 -15 -15 -15 -15 -15 -15 -15 -15 -15 -15 -15 -15 -15 -15 -15 -15 -15
Height
5865 5866 5867 5868 5869 5870 5871 5872 5872 5873 5873 5873 5873 5873 5874 5874 5874 5873 5874 5874 5873 5873 5873 5873 5873 5872 5871 5870 5871 5871 5870 5870 5869 5868 5868 5868 5867 5866 5866 5865 5864 5864 5862
5863 5864 5864 5865 5866 5867 5867 5868 5868 5869 5869 5870 5870 5870 5870 5871 5871 5871 5871 5871 5871 5871 5871 5871 5870 5869 5868 5868 5868 5868 5868 5868 5867 5866 5865 5865 5864 5864 5863 5862 5861 5861 5860
5860 5861 5862 5862 5863 5864 5863 5863 5864 5865 5865 5866 5867 5867 5867 5867 5868 5868 5868 5868 5868 5868 5868 5867 5867 5867 5866 5866 5866 5866 5865 5864 5864 5863 5862 5862 5861 5860 5860 5859 5858 5858 5857
5857 5858 5859 5859 5859 5860 5860 5860 5861 5861 5862 5863 5863 5863 5863 5863 5863 5864 5864 5864 5864 5865 5865 5864 5864 5864 5863 5863 5863 5863 5862 5862 5861 5859 5859 5858 5857 5857 5856 5855 5854 5854 5852
5854 5855 5855 5856 5857 5857 5857 5858 5858 5859 5859 5859 5859 5860 5860 5860 5860 5860 5860 5860 5860 5861 5861 5861 5861 5861 5860 5860 5860 5859 5859 5858 5858 5857 5855 5854 5854 5853 5851 5851 5850 5849 5847
5850 5852 5852 5852 5854 5854 5854 5854 5855 5856 5856 5857 5857 5856 5857 5857 5857 5857 5857 5857 5857 5857 5857 5857 5857 5856 5856 5856 5856 5855 5855 5854 5854 5852 5852 5850 5850 5848 5846 5845 5845 5844 5843
5847 5848 5849 5849 5850 5850 5851 5852 5852 5853 5853 5853 5853 5853 5853 5853 5853 5853 5853 5854 5853 5853 5853 5852 5852 5852 5852 5852 5851 5851 5851 5850 5849 5848 5848 5847 5845 5843 5842 5841 5840 5839 5838
5842 5843 5844 5846 5847 5848 5848 5849 5849 5850 5849 5850 5850 5850 5850 5850 5849 5849 5849 5849 5849 5849 5849 5849 5848 5847 5846 5847 5847 5847 5846 5846 5845 5843 5843 5842 5841 5839 5838 5838 5836 5834 5833
5837 5839 5840 5841 5843 5844 5845 5846 5846 5846 5845 5846 5845 5846 5846 5846 5846 5845 5845 5845 5844 5844 5843 5843 5843 5843 5843 5843 5843 5842 5842 5841 5840 5840 5839 5837 5836 5835 5835 5833 5831 5829 5828
5833 5834 5835 5836 5838 5840 5841 5841 5841 5841 5842 5842 5842 5841 5841 5841 5841 5840 5840 5840 5840 5839 5839 5839 5839 5839 5839 5839 5839 5838 5837 5837 5836 5835 5834 5833 5832 5831 5829 5827 5824 5824 5823
5828 5829 5828 5831 5832 5834 5835 5836 5836 5837 5837 5838 5838 5838 5838 5837 5837 5836 5836 5836 5836 5836 5835 5835 5835 5834 5834 5834 5834 5834 5833 5832 5831 5830 5830 5829 5828 5826 5823 5821 5820 5818 5817
5823 5824 5824 5825 5827 5828 5829 5830 5831 5832 5833 5834 5834 5834 5834 5833 5833 5833 5833 5832 5832 5831 5831 5831 5830 5830 5830 5829 5829 5829 5828 5827 5826 5825 5824 5824 5822 5821 5818 5816 5815 5814 5813
5817 5820 5821 5821 5821 5823 5824 5825 5826 5827 5828 5828 5829 5830 5830 5829 5829 5829 5828 5828 5828 5827 5827 5827 5825 5825 5824 5823 5823 5824 5823 5822 5821 5820 5819 5818 5816 5815 5813 5811 5810 5809 5807
5812 5813 5814 5816 5816 5817 5818 5819 5820 5821 5822 5823 5823 5825 5825 5825 5825 5824 5823 5823 5822 5822 5822 5821 5821 5820 5819 5818 5818 5817 5816 5815 5815 5814 5812 5810 5809 5808 5807 5805 5803 5802 5801
5806 5806 5808 5809 5811 5811 5812 5813 5814 5815 5816 5816 5817 5818 5819 5820 5820 5819 5819 5818 5817 5816 5816 5816 5815 5814 5813 5812 5811 5811 5810 5808 5807 5806 5805 5803 5802 5801 5800 5798 5797 5795 5794
5797 5800 5801 5804 5804 5805 5806 5807 5808 5809 5809 5810 5811 5812 5813 5813 5814 5814 5813 5813 5812 5812 5811 5811 5809 5808 5806 5805 5804 5803 5803 5801 5800 5798 5797 5796 5794 5794 5793 5791 5790 5788 5788
5791 5792 5796 5798 5798 5799 5801 5802 5801 5804 5804 5805 5805 5806 5806 5807 5808 5809 5807 5807 5807 5806 5805 5805 5804 5802 5801 5799 5798 5797 5796 5794 5792 5791 5789 5788 5787 5786 5785 5784 5782 5781 5781
5784 5786 5787 5790 5792 5793 5794 5795 5795 5796 5798 5799 5800 5800 5800 5801 5802 5802 5801 5801 5801 5800 5799 5799 5798 5796 5794 5792 5791 5790 5789 5788 5786 5784 5783 5781 5780 5778 5777 5776 5774 5774 5773
5776 5777 5778 5781 5784 5787 5788 5788 5788 5790 5791 5792 5794 5795 5795 5795 5794 5795 5794 5794 5794 5793 5793 5792 5790 5788 5787 5785 5783 5782 5781 5780 5778 5777 5775 5774 5772 5770 5768 5767 5766 5765 5764
5769 5770 5771 5772 5776 5779 5781 5781 5782 5783 5784 5786 5786 5789 5788 5789 5788 5787 5787 5788 5787 5786 5786 5785 5783 5782 5780 5778 5776 5774 5772 5771 5769 5768 5767 5765 5763 5762 5760 5758 5756 5755 5753
5761 5764 5766 5766 5767 5771 5773 5774 5775 5775 5775 5777 5777 5781 5781 5783 5781 5779 5779 5780 5779 5779 5778 5777 5775 5774 5772 5771 5769 5766 5764 5762 5760 5759 5756 5755 5754 5752 5751 5749 5747 5744 5742
5755 5756 5757 5760 5761 5761 5764 5767 5768 5766 5767 5769 5770 5773 5776 5775 5774 5771 5771 5773 5772 5771 5770 5769 5768 5767 5765 5763 5761 5759 5757 5756 5753 5751 5749 5747 5745 5742 5740 5737 5735 5733 5730
5745 5747 5749 5750 5753 5754 5755 5757 5760 5759 5758 5760 5762 5763 5766 5766 5765 5763 5763 5764 5763 5763 5763 5762 5761 5759 5757 5755 5753 5751 5749 5747 5745 5742 5740 5737 5735 5732 5729 5726 5723 5721 5718
5736 5737 5738 5740 5741 5743 5746 5749 5750 5751 5752 5752 5751 5752 5755 5757 5758 5756 5755 5755 5755 5755 5755 5754 5752 5751 5749 5747 5745 5743 5740 5739 5736 5734 5731 5729 5725 5722 5718 5715 5711 5709 5706
5724 5726 5727 5728 5730 5730 5735 5737 5740 5741 5742 5745 5743 5741 5743 5746 5747 5747 5746 5746 5748 5747 5746 5745 5744 5743 5741 5739 5736 5734 5732 5730 5727 5724 5722 5719 5715 5711 5707 5702 5699 5696 5693
5711 5711 5712 5713 5714 5714 5718 5723 5725 5728 5729 5731 5732 5731 5732 5734 5736 5737 5738 5738 5738 5738 5737 5736 5736 5734 5732 5730 5727 5725 5723 5721 5717 5714 5712 5709 5705 5700 5694 5688 5684 5682 5678
Wind_Speed
19 19 19 19 21 22 22 22 21 21 20 20 19 18 18 18 18 17 18 19 19 18 18 18 18 18 19 21 20 20 18 17 17 17 19 17 17 19 18 20 20 20 20
21 19 21 21 19 18 18 19 21 21 22 22 22 22 21 21 20 20 20 20 20 20 20 20 20 20 20 20 21 20 20 19 19 19 19 18 19 19 19 19 20 20 19
19 18 19 21 21 19 20 20 20 20 21 21 22 24 23 22 22 22 22 22 22 22 21 21 21 21 21 22 22 21 21 21 20 21 21 20 20 20 21 20 21 21 21
19 18 20 21 21 22 22 21 21 21 22 22 22 23 24 25 25 25 24 24 24 24 24 23 22 23 24 24 22 22 22 22 20 21 22 21 21 21 22 22 22 23 22
20 18 19 21 22 23 24 25 24 24 24 24 24 24 25 24 25 26 26 26 25 25 25 25 25 25 24 24 23 23 23 22 21 22 22 21 20 21 22 22 22 22 22
22 20 20 22 22 22 24 25 25 25 25 25 26 26 26 27 27 27 27 27 27 27 26 26 26 25 26 26 25 23 23 23 22 23 23 24 24 24 25 25 25 25 25
23 22 22 22 23 23 22 23 25 26 27 27 27 27 27 27 27 27 28 28 28 28 28 27 27 27 26 26 26 25 25 24 24 25 23 22 22 22 22 22 24 24 24
26 25 24 23 23 23 23 23 23 22 25 26 26 27 27 27 28 28 28 28 28 28 28 27 27 25 25 25 25 24 24 21 22 23 23 21 21 22 24 25 25 25 24
27 24 26 26 25 24 24 23 23 22 22 22 22 23 24 26 26 27 27 27 27 28 28 27 26 26 26 25 23 22 21 21 22 22 22 22 23 25 27 28 30 29 28
28 27 28 28 26 26 26 25 24 23 23 22 22 22 22 23 24 24 25 25 25 26 26 26 25 25 25 24 22 22 21 21 22 23 24 25 27 30 31 32 31 32 32
26 28 29 29 29 30 29 28 28 27 26 25 24 22 22 23 23 23 22 22 22 23 24 25 25 25 25 25 24 25 24 24 25 27 28 28 28 28 29 29 26 21 20
25 26 28 29 30 31 31 31 30 29 28 27 26 24 22 23 24 24 23 22 21 22 23 24 25 26 27 27 26 27 27 28 29 30 30 30 29 29 29 28 24 22 23
26 25 27 29 29 28 28 30 30 30 30 30 29 28 26 25 25 25 25 25 24 23 24 24 24 26 28 29 31 31 31 31 32 32 32 32 32 30 30 30 29 30 27
26 27 27 27 27 27 27 27 28 28 29 30 30 29 29 28 27 26 26 25 26 25 25 25 26 26 27 29 32 33 35 35 35 34 34 34 34 32 32 32 32 32 31
26 29 26 25 24 26 27 25 26 28 28 29 30 29 30 30 29 28 27 28 28 27 26 27 28 28 28 28 29 31 33 35 36 36 35 35 34 34 33 32 33 33 33
31 29 27 24 25 25 26 26 27 26 28 28 29 29 30 30 29 29 29 30 31 30 29 29 30 31 31 30 30 29 30 32 34 34 35 36 35 34 34 34 32 32 33
31 29 27 27 28 26 25 25 26 25 26 28 29 29 30 31 29 30 30 30 31 31 31 30 30 31 32 32 33 32 31 32 34 35 35 35 35 35 35 35 33 33 33
30 29 30 29 29 28 27 28 28 28 27 26 25 27 28 28 29 30 31 30 30 30 31 30 30 30 30 32 33 33 34 34 34 35 35 35 36 36 36 36 36 35 36
35 33 32 30 30 29 31 32 32 31 29 28 26 25 26 28 30 32 32 30 29 31 31 32 32 32 32 31 33 35 36 36 36 37 37 37 38 38 38 39 38 39 40
35 35 33 31 29 30 32 34 34 32 31 30 30 26 29 28 30 32 33 32 31 32 31 31 33 33 34 34 34 37 34 37 39 39 40 39 39 40 40 41 41 42 43
37 36 36 36 32 31 31 31 33 35 37 33 34 33 30 29 30 32 33 33 34 33 33 34 34 34 34 33 36 34 37 34 33 40 43 42 42 43 44 44 45 46 47
38 39 39 38 38 37 36 34 35 38 39 37 37 34 30 31 32 34 35 33 35 36 36 35 37 36 35 35 35 35 37 37 38 38 39 40 42 42 44 45 46 47 47
41 41 42 43 42 41 40 40 38 37 40 40 40 39 35 35 37 39 38 34 33 33 34 35 36 37 36 37 36 36 38 40 39 40 40 40 41 42 44 46 47 48 49
42 42 44 45 45 45 45 45 46 42 41 44 46 47 44 43 40 41 41 38 34 34 34 35 35 36 36 37 38 38 38 40 40 37 40 41 43 44 46 48 49 49 48
46 48 49 50 51 53 52 52 52 52 50 48 49 52 50 48 45 44 42 40 40 37 35 35 36 35 35 35 37 39 40 40 41 41 41 42 43 45 48 49 49 49 49
52 54 56 57 57 58 58 58 58 57 57 55 54 55 54 52 50 47 45 43 43 41 39 38 38 38 38 38 39 41 41 40 40 41 42 43 45 48 52 53 52 53 54
Wind_Direction
249 253 253 252 253 254 255 258 259 258 258 261 265 267 273 274 275 279 285 287 286 282 281 281 276 273 271 274 275 272 274 276 277 280 281 287 285 288 291 291 289 287 286
251 253 256 257 258 261 261 260 261 262 260 259 259 265 266 268 274 278 280 280 281 281 278 277 275 273 273 272 272 272 274 276 278 279 281 284 283 286 287 288 287 286 285
259 261 259 263 266 269 265 263 264 265 264 264 263 263 263 266 269 273 276 279 281 281 279 276 274 274 271 267 266 267 269 272 275 279 281 283 284 284 285 286 285 284 284
260 261 259 259 260 262 266 267 268 270 271 271 269 267 267 267 268 269 271 273 274 276 276 274 272 268 265 266 265 266 269 270 273 277 279 279 281 284 286 286 284 282 284
253 255 261 261 259 262 263 265 268 270 270 269 270 270 269 267 267 267 269 270 270 270 270 267 266 265 264 262 263 266 269 271 272 274 278 278 278 280 283 285 284 285 286
250 254 255 259 263 262 265 269 271 274 273 272 275 276 276 274 271 270 268 270 272 270 268 267 266 265 265 265 265 266 269 271 274 275 274 277 279 281 282 285 284 284 284
251 253 254 256 260 266 267 270 274 277 278 277 276 276 276 276 276 275 274 274 273 274 274 272 270 270 268 267 269 270 271 273 274 275 276 278 281 283 286 286 285 284 285
246 251 256 258 260 262 267 272 275 276 278 280 281 279 278 279 278 278 276 277 276 275 275 275 274 271 270 270 271 271 272 274 274 276 279 281 284 285 286 284 283 283 283
252 252 256 257 259 261 265 271 275 276 278 281 284 283 282 281 280 279 278 279 278 278 278 276 275 274 272 269 269 269 270 271 272 276 280 282 285 285 283 282 282 281 280
253 255 255 260 261 264 262 264 266 269 272 276 278 280 279 280 282 280 278 276 276 277 276 275 273 271 271 271 272 271 269 271 273 275 279 283 285 284 287 289 290 285 280
245 250 255 256 258 259 260 261 264 267 269 271 277 281 284 283 281 279 278 279 281 280 278 275 271 267 265 265 267 267 268 270 273 277 280 282 284 287 290 294 290 291 290
244 247 252 255 256 258 261 262 262 265 268 270 271 274 278 279 280 279 278 277 278 278 279 278 275 272 269 266 264 265 268 272 275 278 281 282 285 287 286 292 283 283 284
249 254 256 255 255 257 260 262 265 265 266 269 271 273 276 278 278 277 278 278 280 283 283 284 282 279 275 271 270 269 270 273 275 279 281 281 284 284 285 286 286 279 279
253 252 257 261 259 256 259 262 266 270 269 268 269 272 274 276 279 278 278 275 276 278 282 284 286 287 284 278 273 272 274 276 278 279 280 281 283 284 287 286 288 279 276
244 251 252 254 256 260 264 268 270 271 273 272 273 272 272 273 277 280 277 275 275 275 277 280 283 285 285 284 279 276 273 275 276 277 278 280 283 284 287 289 288 279 271
242 244 249 247 247 250 258 264 268 273 275 277 274 273 272 271 273 277 279 278 276 279 280 282 285 286 286 285 281 279 279 278 280 280 281 281 283 285 287 287 290 283 276
242 244 242 249 251 252 255 261 267 269 271 271 274 273 272 273 275 277 278 279 279 279 280 285 285 284 285 284 280 283 286 284 284 284 285 284 284 285 284 285 286 286 284
246 240 243 244 249 253 260 261 262 267 265 268 270 273 274 273 272 272 274 276 279 280 282 281 281 284 286 283 284 281 287 285 283 282 283 283 283 282 282 282 283 283 283
244 243 242 242 247 246 250 256 260 261 263 265 267 269 270 269 268 268 272 278 280 279 280 281 283 284 286 285 281 283 285 283 280 281 281 281 282 282 281 281 282 282 282
236 242 247 248 242 249 250 253 258 261 262 262 263 260 262 267 269 268 269 274 277 280 282 283 285 287 289 289 291 286 286 284 278 278 279 280 281 282 282 282 283 284 285
238 237 241 249 252 248 250 253 256 261 263 264 266 263 264 267 270 269 268 268 272 277 279 282 285 288 289 291 292 295 284 295 287 287 277 276 279 279 280 280 281 283 285
237 242 243 242 247 252 254 253 254 257 260 265 266 265 263 262 264 266 269 271 272 275 277 279 281 285 288 289 292 294 292 292 292 291 288 287 287 286 286 286 286 286 286
241 243 246 249 248 248 253 259 256 256 263 266 266 265 262 259 261 264 267 272 272 274 278 281 281 283 286 286 287 286 288 288 289 289 290 291 290 290 289 289 289 288 287
251 251 251 251 253 254 253 254 258 254 257 264 266 264 263 261 260 264 267 268 270 273 276 281 284 285 286 283 284 286 287 289 288 287 291 291 290 290 290 290 289 288 286
256 257 257 257 258 258 258 258 258 259 259 257 262 265 265 263 260 260 262 265 267 270 275 281 282 282 284 284 286 288 286 288 289 293 291 291 291 292 291 291 289 288 287
262 262 262 261 261 261 261 260 260 261 260 260 258 260 262 261 259 259 260 264 267 268 272 276 278 281 283 284 287 289 290 290 291 291 291 292 293 294 294 294 292 291 290